Regional Weather Roundup
Issued by NWS Boston, MA

Current Version | Previous Version | Text Only | Print | Product List | Glossary On
Versions: 1 2 3 4 5 6 7 8 9 10 11 12 13 14 15 16 17 18 19 20 21 22 23 24 25 26 27 28 29 30 31 32 33 34 35 36 37 38 39 40 41 42 43 44 45 46 47 48 49 50
110 ASUS41 KBOX 201210 RWRBOX REGIONAL WEATHER ROUNDUP NATIONAL WEATHER SERVICE BOSTON/NORTON MA 800 AM EDT SAT OCT 20 2018 NOTE: "FAIR" INDICATES FEW OR NO CLOUDS BELOW 12,000 FEET WITH NO SIGNIFICANT WEATHER AND/OR OBSTRUCTIONS TO VISIBILITY. MAZALL-201300- EASTERN MASSACHUSETTS CITY SKY/WX TMP DP RH WIND PRES REMARKS BOSTON CLOUDY 59 46 62 SW15G24 29.67S 6HR MIN TEMP: 55; 6HR MAX TEMP: 59; 6HR PCP: TRACE; BEVERLY CLOUDY 58 44 60 SW15G24 29.65S LAWRENCE CLOUDY 59 45 59 SW14G23 29.66S BEDFORD CLOUDY 56 45 66 SW12G23 29.66R BLUE HILL N/A 54 47 77 SW18G28 29.67R NORWOOD CLOUDY 59 48 67 SW9G21 29.68R MARSHFIELD CLOUDY 59 50 72 SW12G20 29.69S PLYMOUTH CLOUDY 59 50 72 SW16 29.71F TAUNTON CLOUDY 59 50 72 SW10G21 29.71S NEW BEDFORD CLOUDY 58 51 78 SW14 29.71F $$ MAZALL-201300- CAPE COD AND THE ISLANDS CITY SKY/WX TMP DP RH WIND PRES REMARKS FALMOUTH MOCLDY 57 54 88 SW20 29.74S HYANNIS LGT RAIN 58 55 90 SW17G24 29.72S CHATHAM LGT RAIN 59 55 87 SW14G29 29.75S PROVINCETOWN CLOUDY 59 53 80 SW17 29.71F NANTUCKET LGT RAIN 61 56 83 SW22G32 29.75F MARTHAS VNYRD CLOUDY 58 56 93 W10 29.75R $$ MAZALL-201300- CENTRAL AND WESTERN MASSACHUSETTS CITY SKY/WX TMP DP RH WIND PRES REMARKS WORCESTER CLOUDY 51 46 83 SW26G37 29.65R 6HR MIN TEMP: 50; 6HR MAX TEMP: 52; 6HR PCP: TRACE; FITCHBURG CLOUDY 54 45 71 SW9G25 29.65S ORANGE CLOUDY 53 46 77 S10 29.67R SPRINGFIELD CLOUDY 53 47 80 SW14G24 29.68R WESTFIELD CLOUDY 52 48 86 S16 29.68R NORTH ADAMS CLOUDY 50 47 89 W7 29.64S PITTSFIELD CLOUDY 51 44 77 SW13G18 29.64S $$ RIZALL-201300- RHODE ISLAND CITY SKY/WX TMP DP RH WIND PRES REMARKS PROVIDENCE CLOUDY 56 50 80 SW10 29.72S 6HR MIN TEMP: 55; 6HR MAX TEMP: 59; 6HR PCP: TRACE; NEWPORT CLOUDY 58 50 75 SW8 29.73S SMITHFIELD CLOUDY 54 49 83 VRB7G18 29.71R WESTERLY CLOUDY 59 54 83 SW17G25 29.74F $$ CTZALL-201300- CONNECTICUT CITY SKY/WX TMP DP RH WIND PRES REMARKS BRADLEY INTL CLOUDY 53 48 83 SW10 29.70R 6HR MIN TEMP: 51; 6HR MAX TEMP: 54; 6HR PCP: TRACE; HARTFORD CLOUDY 54 50 86 S10 29.71S BRIDGEPORT LGT RAIN 57 52 83 SW18 29.74R DANBURY CLOUDY 52 49 89 SW10 29.74R GROTON CLOUDY 59 52 77 SW22G30 29.72F NEW HAVEN CLOUDY 59 52 77 SW13G23 29.74R CHESTER CLOUDY 55 52 88 SW10G18 29.73S MERIDEN CLOUDY 54 50 86 S7 29.73S WILLIMANTIC CLOUDY 55 51 86 SW9 29.72S OXFORD CLOUDY 51 49 92 SW8 29.73R $$ MEZ002-015-021-024-NHZ003-005-008-011-012-014-VTZ005-008-201300- NORTHERN NEW ENGLAND CITY SKY/WX TMP DP RH WIND PRES REMARKS PORTLAND ME CLOUDY 56 45 66 S9 29.60S 6HR MIN TEMP: 51; 6HR MAX TEMP: 56; BANGOR ME CLOUDY 54 44 69 S14G21 29.56F CONCORD NH CLOUDY 53 44 71 SW10G20 29.62R MANCHESTER NH CLOUDY 56 44 64 SW9 29.62R NASHUA NH CLOUDY 55 47 74 VRB6 29.65R PORTSMOUTH NH CLOUDY 56 43 62 SW14G23 29.61R JAFFREY NH CLOUDY 51 46 83 SW12G26 29.64R KEENE NH CLOUDY 52 45 77 S15 29.63R BURLINGTON VT CLOUDY 54 40 59 S17G25 29.50R MT. WASHINGTON FOG 28 28 100 W52 N/A VSB 0 WCI 9 $$ NYZ052-076-201300- EASTERN NEW YORK CITY SKY/WX TMP DP RH WIND PRES REMARKS ALBANY CLOUDY 53 45 74 S9 29.64S 6HR MIN TEMP: 52; 6HR MAX TEMP: 53; 6HR PCP: TRACE; NEW YORK CITY CLOUDY 57 51 80 SW12 29.76R 6HR MIN TEMP: 55; 6HR MAX TEMP: 59; 6HR PCP: 0.07; $$ ANZALL-201300- MARINE OBSERVATIONS STATION/POSITION TIME TEMP WIND PRES VSBY WAVE AIR SEA DIR/SP/G HT/PER (UTC) (F) (DEG/KT/KT) (MB) (MI) (FT/S) BOSTON BUOY 1150 58 56 190/ 17/ 25 1004.1F 2/ 3 BUZZARDS BAY 1100 60 240/ 26/ 31 1006.7F NANTUCKET SOUND 1140 61 59 230/ 23/ 29 1006.8F MASS BAY-STELLWA 1104 57 56 200/ 19/ 23 1003.1F 1 7/8 4/ 5 ISLE OF SHOALS 1100 57 200/ 26/ 29 1002.7F S OF BLOCK IS 1143 63 N/A 10/ 8 $$ ......................KEY......................... SKY/WX - SKY CONDITION/PRESENT WEATHER TMP - TEMPERATURE IN FAHRENHEIT DWPT - DEWPOINT IN FAHRENHEIT RH - RELATIVE HUMIDITY IN PERCENT WIND - DIRECTION AND SPEED IN MPH PRES - MEAN SEA LEVEL PRESSURE IN INCHES OF HG WCI - WIND CHILL INDEX VSB - VISIBILITY IN MILES HX - HEAT INDEX TC - TEMPERATURE IN CELSIUS VRB - VARIABLE WIND DIRECTION N/A - NOT AVAILABLE

USA.gov is the U.S. government's official web portal to all federal, state and local government web resources and services.